FW2628 Weather Reports


Display with metric or nautical units.
time (UTC)temp
F
wind
direction
speed
MPH
gust
MPH
rain 1hr
in
rain 24hr
in
rain mn
in
humidity
%
barometer
mb
20200331104720 54 40 3.0 7.0 0.00 0.00 0.00 34 1019.5
20200331104226 55 81 4.0 8.0 0.00 0.00 0.00 34 1019.6
20200331103721 55 24 3.0 8.0 0.00 0.00 0.00 33 1019.6
20200331103215 54 53 2.0 5.0 0.00 0.00 0.00 31 1019.6
20200331102714 54 39 3.0 7.0 0.00 0.00 0.00 28 1019.9
20200331102214 55 8 3.0 7.0 0.00 0.00 0.00 27 1019.9
20200331101714 55 26 4.0 7.0 0.00 0.00 0.00 28 1019.9
20200331101213 55 35 4.0 7.0 0.00 0.00 0.00 31 1020.0
20200331100713 55 32 3.0 7.0 0.00 0.00 0.00 31 1020.1
20200331100213 55 40 3.0 6.0 0.00 0.00 0.00 32 1020.2
20200331095714 55 48 3.0 6.0 0.00 0.00 0.00 33 1020.3
20200331095218 55 37 3.0 6.0 0.00 0.00 0.00 33 1020.3
20200331094715 55 31 2.0 6.0 0.00 0.00 0.00 34 1020.3
20200331094207 54 2 2.0 6.0 0.00 0.00 0.00 33 1020.4
20200331093707 54 39 1.0 4.0 0.00 0.00 0.00 34 1020.5
20200331093213 54 26 1.0 4.0 0.00 0.00 0.00 34 1020.6
20200331092706 54 26 1.0 4.0 0.00 0.00 0.00 34 1020.7
20200331092215 54 12 1.0 3.0 0.00 0.00 0.00 34 1020.7
20200331091710 54 30 1.0 5.0 0.00 0.00 0.00 34 1020.7
20200331091207 54 30 1.0 5.0 0.00 0.00 0.00 34 1020.7
20200331090705 54 35 1.0 4.0 0.00 0.00 0.00 34 1020.9
20200331090208 54 40 1.0 4.0 0.00 0.00 0.00 34 1020.7
20200331085702 54 26 2.0 4.0 0.00 0.00 0.00 33 1020.9
20200331085207 55 34 2.0 4.0 0.00 0.00 0.00 33 1021.1
20200331084656 55 29 3.0 6.0 0.00 0.00 0.00 32 1021.1
20200331084200 55 30 3.0 6.0 0.00 0.00 0.00 32 1021.2
20200331083651 55 27 2.0 5.0 0.00 0.00 0.00 32 1021.1
20200331083156 55 23 2.0 5.0 0.00 0.00 0.00 33 1021.1
20200331082656 55 36 2.0 5.0 0.00 0.00 0.00 33 1021.2
20200331082152 55 20 2.0 5.0 0.00 0.00 0.00 33 1021.2
20200331081647 55 34 2.0 5.0 0.00 0.00 0.00 33 1021.3
20200331081147 55 39 3.0 5.0 0.00 0.00 0.00 33 1021.3
20200331080648 55 32 2.0 5.0 0.00 0.00 0.00 33 1021.3
20200331080147 55 32 2.0 4.0 0.00 0.00 0.00 33 1021.4
20200331075645 55 27 2.0 5.0 0.00 0.00 0.00 32 1021.4
20200331075145 55 41 2.0 5.0 0.00 0.00 0.00 32 1021.4
20200331074644 55 19 2.0 5.0 0.00 0.00 0.00 32 1021.4
20200331074148 55 41 1.0 5.0 0.00 0.00 0.00 32 1021.5
20200331073654 55 33 2.0 3.0 0.00 0.00 0.00 32 1021.6
20200331073146 56 35 2.0 5.0 0.00 0.00 0.00 32 1021.7
20200331072639 55 44 1.0 5.0 0.00 0.00 0.00 32 1021.6
20200331072145 55 41 1.0 3.0 0.00 0.00 0.00 33 1021.6
20200331071638 55 24 1.0 2.0 0.00 0.00 0.00 33 1021.6
20200331071139 55 17 0.0 2.0 0.00 0.00 0.00 33 1021.7
20200331070638 55 41 1.0 3.0 0.00 0.00 0.00 33 1021.7
20200331070136 56 39 1.0 4.0 0.00 0.00 0.00 32 1021.6
20200331065632 56 42 1.0 4.0 0.00 0.00 0.00 32 1021.5
20200331065132 56 32 1.0 5.0 0.00 0.00 0.00 32 1021.6
20200331064633 56 38 2.0 5.0 0.00 0.00 0.00 32 1021.7
20200331064133 56 43 2.0 5.0 0.00 0.00 0.00 32 1021.7
20200331063635 56 35 2.0 4.0 0.00 0.00 0.00 33 1021.9
20200331063138 55 38 1.0 4.0 0.00 0.00 0.00 33 1021.9
20200331062631 55 37 1.0 4.0 0.00 0.00 0.00 34 1021.9
20200331062134 55 30 1.0 3.0 0.00 0.00 0.00 34 1022.0
20200331061623 55 13 1.0 3.0 0.00 0.00 0.00 35 1022.1
20200331061119 54 43 1.0 3.0 0.00 0.00 0.00 35 1022.1
20200331060616 54 39 0.0 3.0 0.00 0.00 0.00 36 1022.2
20200331060113 55 31 0.0 2.0 0.00 0.00 0.00 35 1022.3
20200331055611 55 31 0.0 1.0 0.00 0.00 0.00 34 1022.3
20200331055111 56 31 1.0 4.0 0.00 0.00 0.00 34 1022.3
20200331054606 56 37 1.0 4.0 0.00 0.00 0.00 33 1022.3
20200331054112 56 15 1.0 3.0 0.00 0.00 0.00 34 1022.4
20200331053605 55 18 1.0 4.0 0.00 0.00 0.00 34 1022.3
20200331053107 55 34 1.0 4.0 0.00 0.00 0.00 34 1022.2
20200331052603 55 39 0.0 3.0 0.00 0.00 0.00 35 1022.3
20200331052104 55 39 1.0 3.0 0.00 0.00 0.00 35 1022.3
20200331051602 56 38 2.0 4.0 0.00 0.00 0.00 34 1022.3
20200331051101 56 35 1.0 4.0 0.00 0.00 0.00 34 1022.3
20200331050601 56 26 1.0 4.0 0.00 0.00 0.00 34 1022.4
20200331050101 56 41 2.0 4.0 0.00 0.00 0.00 34 1022.4
20200331045601 56 37 1.0 4.0 0.00 0.00 0.00 35 1022.4
20200331045102 55 39 1.0 4.0 0.00 0.00 0.00 35 1022.5
20200331044602 56 33 1.0 4.0 0.00 0.00 0.00 35 1022.4
20200331044100 56 37 1.0 3.0 0.00 0.00 0.00 36 1022.4
20200331043559 55 43 0.0 3.0 0.00 0.00 0.00 36 1022.4
20200331043100 55 36 0.0 2.0 0.00 0.00 0.00 38 1022.4
20200331042559 54 20 0.0 1.0 0.00 0.00 0.00 39 1022.5
20200331042100 54 23 0.0 1.0 0.00 0.00 0.00 40 1022.4
20200331041559 53 20 0.0 0.0 0.00 0.00 0.00 40 1022.4
20200331041100 53 20 0.0 1.0 0.00 0.00 0.00 40 1022.5
20200331040557 53 20 0.0 1.0 0.00 0.00 0.00 40 1022.5
20200331040057 53 6 0.0 0.0 0.00 0.00 0.00 41 1022.5
20200331035555 53 6 0.0 0.0 0.00 0.00 0.00 41 1022.6
20200331035055 53 6 0.0 0.0 0.00 0.00 0.00 42 1022.4
20200331034558 53 6 0.0 0.0 0.00 0.00 0.00 43 1022.5
20200331034058 53 6 0.0 0.0 0.00 0.00 0.00 42 1022.3
20200331033548 54 6 0.0 0.0 0.00 0.00 0.00 41 1022.3
20200331033049 54 6 0.0 0.0 0.00 0.00 0.00 40 1022.2
20200331032548 55 6 0.0 0.0 0.00 0.00 0.00 39 1022.1
20200331032046 55 6 0.0 0.0 0.00 0.00 0.00 38 1022.0
20200331031547 56 6 0.0 0.0 0.00 0.00 0.00 37 1021.9
20200331031042 56 6 0.0 0.0 0.00 0.00 0.00 36 1021.9
20200331030542 56 6 0.0 1.0 0.00 0.00 0.00 36 1021.9
20200331030038 56 9 0.0 1.0 0.00 0.00 0.00 36 1021.6
20200331025542 56 342 0.0 0.0 0.00 0.00 0.00 37 1021.6
20200331025035 56 343 0.0 1.0 0.00 0.00 0.00 37 1021.5
20200331024536 57 343 0.0 1.0 0.00 0.00 0.00 36 1021.4
20200331024029 57 334 0.0 0.0 0.00 0.00 0.00 35 1021.4
20200331023528 58 323 0.0 2.0 0.00 0.00 0.00 35 1021.3
20200331023026 58 358 0.0 2.0 0.00 0.00 0.00 34 1021.2
20200331022523 58 345 0.0 1.0 0.00 0.00 0.00 34 1021.1
20200331022024 58 323 0.0 1.0 0.00 0.00 0.00 34 1021.0
20200331021524 58 313 0.0 1.0 0.00 0.00 0.00 33 1021.0
20200331021019 59 331 0.0 1.0 0.00 0.00 0.00 33 1021.0
20200331020530 59 328 0.0 0.0 0.00 0.00 0.00 32 1021.0
20200331020030 59 317 0.0 0.0 0.00 0.00 0.00 32 1021.0
20200331015517 60 316 0.0 0.0 0.00 0.00 0.00 31 1020.9
20200331015017 61 316 0.0 0.0 0.00 0.00 0.00 30 1020.7
20200331014513 62 316 0.0 1.0 0.00 0.00 0.00 28 1020.7
20200331014014 62 27 0.0 1.0 0.00 0.00 0.00 27 1020.6
20200331013514 62 268 0.0 4.0 0.00 0.00 0.00 27 1020.6
20200331013005 63 316 1.0 4.0 0.00 0.00 0.00 26 1020.6
20200331012510 63 30 0.0 4.0 0.00 0.00 0.00 25 1020.6
20200331012012 64 342 1.0 6.0 0.00 0.00 0.00 25 1020.6
20200331011507 64 300 1.0 6.0 0.00 0.00 0.00 25 1020.6
20200331011011 64 26 1.0 5.0 0.00 0.00 0.00 25 1020.5
20200331010508 65 280 1.0 5.0 0.00 0.00 0.00 25 1020.5
20200331010004 65 297 1.0 8.0 0.00 0.00 0.00 24 1020.4
20200331005500 66 277 1.0 8.0 0.00 0.00 0.00 23 1020.4
20200331004956 67 249 1.0 6.0 0.00 0.00 0.00 23 1020.4
20200331004455 67 309 2.0 6.0 0.00 0.00 0.00 22 1020.4
20200331003956 67 277 1.0 5.0 0.00 0.00 0.00 22 1020.5
20200331003455 68 311 1.0 5.0 0.00 0.00 0.00 22 1020.4
20200331002953 68 265 1.0 6.0 0.00 0.00 0.00 22 1020.4
20200331002454 68 243 2.0 6.0 0.00 0.00 0.00 22 1020.3
20200331001950 68 316 2.0 5.0 0.00 0.00 0.00 22 1020.3
20200331001451 68 347 2.0 7.0 0.00 0.00 0.00 22 1020.3
20200331000951 69 315 1.0 7.0 0.00 0.00 0.00 22 1020.4
20200331000451 69 4 1.0 5.0 0.00 0.00 0.00 21 1020.4
20200330235952 69 206 1.0 5.0 0.00 0.00 0.00 21 1020.3
20200330235451 69 345 2.0 6.0 0.00 0.00 0.00 21 1020.2
20200330235001 69 314 2.0 6.0 0.00 0.00 0.00 21 1020.3
20200330234444 69 18 2.0 6.0 0.00 0.00 0.00 21 1020.2
20200330233944 70 276 2.0 6.0 0.00 0.00 0.00 21 1020.2
20200330233445 70 269 1.0 5.0 0.00 0.00 0.00 21 1020.2
20200330232950 70 186 1.0 5.0 0.00 0.00 0.00 21 1020.2
20200330232445 70 284 1.0 7.0 0.00 0.00 0.00 21 1020.1
20200330231946 70 249 1.0 7.0 0.00 0.00 0.00 21 1020.1
20200330231445 69 207 2.0 6.0 0.00 0.00 0.00 21 1020.1
20200330230952 69 15 1.0 6.0 0.00 0.00 0.00 21 1020.0
20200330230452 70 297 1.0 6.0 0.00 0.00 0.00 22 1020.1
20200330225946 70 76 1.0 5.0 0.00 0.00 0.00 21 1020.1
20200330225441 70 15 2.0 6.0 0.00 0.00 0.00 22 1020.2
20200330224941 69 193 2.0 7.0 0.00 0.00 0.00 21 1020.2
20200330224442 70 210 2.0 7.0 0.00 0.00 0.00 22 1020.3
20200330223941 69 195 2.0 6.0 0.00 0.00 0.00 23 1020.3
20200330223441 69 292 2.0 7.0 0.00 0.00 0.00 22 1020.4
20200330222942 70 259 2.0 7.0 0.00 0.00 0.00 22 1020.3
20200330222437 69 11 3.0 8.0 0.00 0.00 0.00 22 1020.3
20200330221936 70 49 2.0 8.0 0.00 0.00 0.00 21 1020.3
20200330221438 70 231 2.0 6.0 0.00 0.00 0.00 22 1020.3
20200330220936 70 246 2.0 5.0 0.00 0.00 0.00 23 1020.4
20200330220438 69 69 1.0 5.0 0.00 0.00 0.00 22 1020.4
20200330215943 69 260 2.0 11.0 0.00 0.00 0.00 22 1020.4
20200330215437 70 283 2.0 11.0 0.00 0.00 0.00 22 1020.4
20200330214936 70 39 1.0 6.0 0.00 0.00 0.00 21 1020.4
20200330214436 70 28 1.0 4.0 0.00 0.00 0.00 22 1020.4
20200330213938 70 193 1.0 5.0 0.00 0.00 0.00 23 1020.5
20200330213436 69 153 2.0 11.0 0.00 0.00 0.00 22 1020.5
20200330212938 69 297 3.0 11.0 0.00 0.00 0.00 24 1020.5
20200330212442 69 18 3.0 8.0 0.00 0.00 0.00 23 1020.6
20200330211941 69 46 2.0 8.0 0.00 0.00 0.00 22 1020.7
20200330211436 69 215 2.0 7.0 0.00 0.00 0.00 22 1020.9
20200330210937 69 269 2.0 5.0 0.00 0.00 0.00 24 1020.9
20200330210434 69 278 2.0 8.0 0.00 0.00 0.00 22 1020.9
20200330205934 69 117 2.0 8.0 0.00 0.00 0.00 23 1020.9
20200330205434 68 284 2.0 7.0 0.00 0.00 0.00 23 1021.0
20200330204935 68 283 2.0 7.0 0.00 0.00 0.00 23 1021.1
20200330204432 67 269 2.0 11.0 0.00 0.00 0.00 23 1021.1
20200330203933 68 356 3.0 11.0 0.00 0.00 0.00 23 1021.1
20200330203432 68 298 2.0 7.0 0.00 0.00 0.00 23 1021.2
20200330202931 68 323 2.0 7.0 0.00 0.00 0.00 24 1021.2
20200330202428 68 42 2.0 7.0 0.00 0.00 0.00 23 1021.3
20200330201927 67 302 2.0 8.0 0.00 0.00 0.00 24 1021.4
20200330201426 67 3 2.0 10.0 0.00 0.00 0.00 23 1021.4
20200330200927 67 335 4.0 10.0 0.00 0.00 0.00 24 1021.5
20200330200436 67 44 3.0 10.0 0.00 0.00 0.00 23 1021.5
20200330195927 67 249 3.0 7.0 0.00 0.00 0.00 24 1021.5
20200330195427 67 251 3.0 7.0 0.00 0.00 0.00 23 1021.6
20200330194926 67 32 2.0 6.0 0.00 0.00 0.00 23 1021.7
20200330194427 67 227 3.0 8.0 0.00 0.00 0.00 24 1021.9
20200330193922 67 19 4.0 8.0 0.00 0.00 0.00 24 1021.7
20200330193427 67 72 3.0 8.0 0.00 0.00 0.00 23 1021.9
20200330192924 67 9 1.0 8.0 0.00 0.00 0.00 23 1021.9
20200330192425 68 340 1.0 5.0 0.00 0.00 0.00 23 1022.0
20200330191926 67 134 1.0 5.0 0.00 0.00 0.00 23 1022.0
20200330191422 67 68 1.0 4.0 0.00 0.00 0.00 23 1022.1
20200330190925 66 195 1.0 3.0 0.00 0.00 0.00 24 1022.1
20200330190425 66 321 2.0 9.0 0.00 0.00 0.00 24 1022.1
20200330185926 66 39 2.0 9.0 0.00 0.00 0.00 24 1022.2
20200330185421 65 42 2.0 9.0 0.00 0.00 0.00 24 1022.2
20200330184916 65 66 2.0 6.0 0.00 0.00 0.00 23 1022.3
20200330184415 65 75 1.0 6.0 0.00 0.00 0.00 23 1022.3
20200330183914 65 353 2.0 9.0 0.00 0.00 0.00 23 1022.4
20200330183414 65 54 3.0 9.0 0.00 0.00 0.00 24 1022.5
20200330182913 65 359 2.0 8.0 0.00 0.00 0.00 24 1022.6
20200330182415 65 322 1.0 4.0 0.00 0.00 0.00 25 1022.5
20200330181910 64 345 2.0 7.0 0.00 0.00 0.00 25 1022.6
20200330181411 65 31 3.0 7.0 0.00 0.00 0.00 24 1022.5
20200330180913 65 236 2.0 6.0 0.00 0.00 0.00 25 1022.6
20200330180413 64 250 1.0 6.0 0.00 0.00 0.00 25 1022.6
20200330175913 64 70 2.0 8.0 0.00 0.00 0.00 24 1022.5
20200330175419 64 60 1.0 8.0 0.00 0.00 0.00 25 1022.5
20200330174909 64 138 1.0 4.0 0.00 0.00 0.00 25 1022.5
20200330174409 64 20 1.0 3.0 0.00 0.00 0.00 25 1022.5
20200330173907 64 287 1.0 7.0 0.00 0.00 0.00 26 1022.7
20200330173407 64 259 2.0 7.0 0.00 0.00 0.00 26 1022.6
20200330172902 63 62 1.0 7.0 0.00 0.00 0.00 25 1022.4
20200330172408 63 289 1.0 3.0 0.00 0.00 0.00 26 1022.5
20200330171905 63 262 1.0 4.0 0.00 0.00 0.00 27 1022.4
20200330171358 63 276 1.0 6.0 0.00 0.00 0.00 27 1022.4
20200330170914 63 245 1.0 6.0 0.00 0.00 0.00 26 1022.5
20200330170402 63 19 1.0 5.0 0.00 0.00 0.00 27 1022.5
20200330165901 63 237 0.0 5.0 0.00 0.00 0.00 28 1022.5
20200330165356 62 157 0.0 4.0 0.00 0.00 0.00 28 1022.5
20200330164855 61 81 1.0 4.0 0.00 0.00 0.00 27 1022.5
20200330164350 62 338 1.0 3.0 0.00 0.00 0.00 27 1022.6
20200330163850 62 267 0.0 4.0 0.00 0.00 0.00 28 1022.5
20200330163350 61 58 1.0 4.0 0.00 0.00 0.00 27 1022.5
20200330162850 61 356 1.0 6.0 0.00 0.00 0.00 28 1022.3
20200330162351 61 209 1.0 6.0 0.00 0.00 0.00 28 1022.2
20200330161844 61 49 1.0 4.0 0.00 0.00 0.00 28 1022.1
20200330161344 61 142 0.0 2.0 0.00 0.00 0.00 28 1022.1
20200330160846 61 28 0.0 2.0 0.00 0.00 0.00 28 1022.1
20200330160348 61 75 0.0 2.0 0.00 0.00 0.00 28 1022.1
20200330155840 62 67 0.0 1.0 0.00 0.00 0.00 27 1022.1
20200330155344 61 77 0.0 0.0 0.00 0.00 0.00 29 1022.1
20200330154837 60 77 0.0 3.0 0.00 0.00 0.00 28 1022.1
20200330154337 60 65 0.0 3.0 0.00 0.00 0.00 29 1022.0
20200330153835 59 215 0.0 1.0 0.00 0.00 0.00 30 1022.0
20200330153333 59 213 0.0 1.0 0.00 0.00 0.00 29 1022.0
20200330152832 59 124 0.0 1.0 0.00 0.00 0.00 30 1021.9
20200330152336 59 154 0.0 1.0 0.00 0.00 0.00 31 1021.9
20200330151834 58 119 0.0 1.0 0.00 0.00 0.00 31 1021.7
20200330151327 58 158 0.0 1.0 0.00 0.00 0.00 32 1021.6
20200330150832 57 129 0.0 1.0 0.00 0.00 0.00 34 1021.7
20200330150329 56 42 0.0 0.0 0.00 0.00 0.00 33 1021.6
20200330145825 55 42 0.0 0.0 0.00 0.00 0.00 35 1021.5
20200330145322 55 42 0.0 0.0 0.00 0.00 0.00 36 1021.3
20200330144815 54 42 0.0 0.0 0.00 0.00 0.00 37 1021.3
20200330144314 53 44 0.0 0.0 0.00 0.00 0.00 39 1021.2
20200330143814 52 117 0.0 0.0 0.00 0.00 0.00 40 1021.1
20200330143315 51 117 0.0 0.0 0.00 0.00 0.00 41 1021.1
20200330142814 50 188 0.0 0.0 0.00 0.00 0.00 42 1021.0
20200330142315 49 214 0.0 0.0 0.00 0.00 0.00 43 1020.9
20200330141815 49 214 0.0 0.0 0.00 0.00 0.00 47 1020.9
20200330141314 48 214 0.0 0.0 0.00 0.00 0.00 47 1020.7
20200330140813 47 214 0.0 0.0 0.00 0.00 0.00 49 1020.7
20200330140314 46 214 0.0 0.0 0.00 0.00 0.00 51 1020.6
20200330135814 45 214 0.0 0.0 0.00 0.00 0.00 51 1020.6
20200330135309 44 214 0.0 0.0 0.00 0.00 0.00 52 1020.5
20200330134809 44 214 0.0 0.0 0.00 0.00 0.00 52 1020.4
20200330134310 44 214 0.0 0.0 0.00 0.00 0.00 52 1020.3
20200330133810 43 214 0.0 0.0 0.00 0.00 0.00 52 1020.3
20200330133315 43 214 0.0 0.0 0.00 0.00 0.00 53 1020.2
20200330132815 42 214 0.0 0.0 0.00 0.00 0.00 54 1020.1
20200330132305 43 214 0.0 0.0 0.00 0.00 0.00 55 1020.0
20200330131805 43 214 0.0 0.0 0.00 0.00 0.00 53 1020.0
20200330131310 42 214 0.0 0.0 0.00 0.00 0.00 54 1020.0
20200330130806 42 214 0.0 0.0 0.00 0.00 0.00 54 1019.9
20200330130307 42 214 0.0 0.0 0.00 0.00 0.00 54 1019.8
20200330125805 42 214 0.0 0.0 0.00 0.00 0.00 55 1019.6
20200330125303 42 214 0.0 0.0 0.00 0.00 0.00 55 1019.5
20200330124803 42 214 0.0 0.0 0.00 0.00 0.00 56 1019.5
20200330124301 42 214 0.0 0.0 0.00 0.00 0.00 55 1019.4
20200330123802 42 214 0.0 0.0 0.00 0.00 0.00 54 1019.3
20200330123301 43 214 0.0 0.0 0.00 0.00 0.00 53 1019.2
20200330122800 43 214 0.0 0.0 0.00 0.00 0.00 53 1019.2
20200330122258 43 214 0.0 0.0 0.00 0.00 0.00 52 1019.1
20200330121756 43 214 0.0 0.0 0.00 0.00 0.00 53 1019.1
20200330121255 43 214 0.0 0.0 0.00 0.00 0.00 53 1018.9
20200330120755 43 214 0.0 0.0 0.00 0.00 0.00 52 1018.9
20200330120252 43 214 0.0 0.0 0.00 0.00 0.00 51 1018.8
20200330115749 43 214 0.0 0.0 0.00 0.00 0.00 52 1018.5
20200330115250 43 214 0.0 0.0 0.00 0.00 0.00 52 1018.3
20200330114749 44 214 0.0 0.0 0.00 0.00 0.00 51 1018.3
20200330114249 44 214 0.0 0.0 0.00 0.00 0.00 51 1018.3
20200330113748 44 214 0.0 0.0 0.00 0.00 0.00 51 1018.2
20200330113248 44 214 0.0 0.0 0.00 0.00 0.00 51 1018.2
20200330112745 44 214 0.0 0.0 0.00 0.00 0.00 50 1018.1
20200330112242 43 214 0.0 0.0 0.00 0.00 0.00 50 1018.2
20200330111743 43 214 0.0 0.0 0.00 0.00 0.00 52 1018.1
20200330111236 44 214 0.0 0.0 0.00 0.00 0.00 52 1018.2
20200330110742 44 214 0.0 0.0 0.00 0.00 0.00 51 1018.1
20200330110236 44 214 0.0 0.0 0.00 0.00 0.00 52 1018.1
20200330105737 43 214 0.0 0.0 0.00 0.00 0.00 52 1018.0
20200330105234 43 214 0.0 0.0 0.00 0.00 0.00 53 1017.9